Location: Newark
(42.7133°N, 87.7910°W)
Time: 16:04:07
(UTC+00:00)

Altair - All Passes

Search period start: 15 September 2019 00:00
Search period end: 25 September 2019 00:00
Orbit: 1501 x 1683 km, 47.2° (Epoch: 14 September)

Date Brightness Start Highest point End Pass type
(mag) Time Alt. Az. Time Alt. Az. Time Alt. Az.
15 Sep - 01:09:44 10° SSW 01:18:53 40° SE 01:28:00 10° ENE visible
15 Sep - 03:12:54 10° WSW 03:23:09 90° SE 03:33:13 10° ENE visible
15 Sep - 05:18:32 10° W 05:28:40 68° N 05:38:31 10° E visible
15 Sep - 07:24:04 10° WNW 07:34:10 89° NNE 07:43:51 10° ESE visible
15 Sep - 09:29:26 10° WNW 09:38:18 40° SW 09:46:52 10° SSE visible
16 Sep - 00:44:50 10° SSW 00:53:46 37° SE 01:02:42 10° ENE visible
16 Sep - 02:47:42 10° WSW 02:57:55 86° SSE 03:08:01 10° ENE visible
16 Sep - 04:53:14 10° W 05:03:23 68° N 05:13:17 10° E visible
16 Sep - 06:58:49 10° WNW 07:08:57 86° NNE 07:18:41 10° ESE visible
16 Sep - 09:04:08 10° WNW 09:13:13 43° SW 09:21:59 10° SSE visible
17 Sep - 00:19:57 10° SSW 00:28:40 34° SE 00:37:23 10° ENE visible
17 Sep - 02:22:30 10° WSW 02:32:42 83° SSE 02:42:49 10° ENE visible
17 Sep - 04:27:56 10° W 04:38:07 69° N 04:48:02 10° E visible
17 Sep - 06:33:35 10° WNW 06:43:43 84° NNE 06:53:30 10° ESE visible
17 Sep - 08:38:50 10° WNW 08:48:08 47° SW 08:57:04 10° SSE visible
17 Sep - 10:48:20 10° WSW 10:50:52 11° WSW 10:53:23 10° SW visible
17 Sep - 23:55:08 10° S 00:03:35 32° SE 00:12:03 10° ENE daylight
18 Sep - 01:57:19 10° SW 02:07:30 79° SSE 02:17:36 10° ENE visible
18 Sep - 04:02:39 10° W 04:12:50 69° N 04:22:48 10° ENE visible
18 Sep - 06:08:19 10° WNW 06:18:30 81° NNE 06:28:19 10° ESE visible
18 Sep - 08:13:33 10° WNW 08:23:01 50° SW 08:32:07 10° SSE visible
18 Sep - 10:21:55 10° W 10:25:52 13° WSW 10:29:48 10° SW visible
18 Sep - 23:30:21 10° S 23:38:30 29° SE 23:46:41 10° ENE daylight
19 Sep - 01:32:10 10° SW 01:42:17 76° SSE 01:52:23 10° ENE visible
19 Sep - 03:37:21 10° W 03:47:33 70° N 03:57:33 10° ENE visible
19 Sep - 05:43:04 10° WNW 05:53:15 79° NNE 06:03:06 10° ESE visible
19 Sep - 07:48:18 10° WNW 07:57:54 54° SW 08:07:08 10° SE visible
19 Sep - 09:55:56 10° W 10:00:52 15° WSW 10:05:45 10° SSW visible
19 Sep - 23:05:38 10° S 23:13:25 26° SE 23:21:17 10° ENE daylight
20 Sep - 01:07:01 10° SW 01:17:06 72° SSE 01:27:10 10° ENE visible
20 Sep - 03:12:04 10° W 03:22:16 71° N 03:32:19 10° ENE visible
20 Sep - 05:17:48 10° WNW 05:28:01 77° NNE 05:37:53 10° ESE visible
20 Sep - 07:23:02 10° WNW 07:32:46 58° SW 07:42:08 10° SE visible
20 Sep - 09:30:09 10° W 09:35:52 17° WSW 09:41:29 10° SSW visible
20 Sep - 22:40:57 10° S 22:48:22 24° SE 22:55:49 10° E daylight
21 Sep - 00:41:54 10° SW 00:51:54 68° SE 01:01:57 10° ENE visible
21 Sep - 02:46:48 10° W 02:57:00 73° N 03:07:05 10° ENE visible
21 Sep - 04:52:32 10° WNW 05:02:45 75° NNE 05:12:39 10° E visible
21 Sep - 06:57:46 10° WNW 07:07:37 62° SW 07:17:06 10° SE visible
21 Sep - 09:04:29 10° W 09:10:51 19° SW 09:17:05 10° SSW visible
21 Sep - 22:16:21 10° S 22:23:18 22° SE 22:30:19 10° E daylight
22 Sep - 00:16:48 10° SW 00:26:44 64° SE 00:36:43 10° ENE visible
22 Sep - 02:21:32 10° W 02:31:44 74° NNW 02:41:51 10° ENE visible
22 Sep - 04:27:16 10° WNW 04:37:30 73° NNE 04:47:25 10° E visible
22 Sep - 06:32:31 10° WNW 06:42:29 66° SW 06:52:03 10° SE visible
22 Sep - 08:38:55 10° W 08:45:49 22° SW 08:52:34 10° S night (unlit)
22 Sep - 21:51:50 10° SSE 21:58:15 19° SE 22:04:44 10° E daylight
22 Sep - 23:51:43 10° SW 00:01:34 61° SE 00:11:29 10° ENE daylight
23 Sep - 01:56:15 10° W 02:06:28 76° NNW 02:16:37 10° ENE visible
23 Sep - 04:02:00 10° WNW 04:12:13 72° N 04:22:11 10° E visible
23 Sep - 06:07:16 10° WNW 06:17:18 70° SSW 06:26:59 10° SE visible
23 Sep - 08:13:26 10° W 08:20:47 24° SW 08:27:59 10° S night (unlit)
23 Sep - 21:27:26 10° SSE 21:33:14 17° ESE 21:39:04 10° E daylight
23 Sep - 23:26:41 10° SW 23:36:24 57° SE 23:46:15 10° ENE daylight
24 Sep - 01:31:00 10° WSW 01:41:12 78° NNW 01:51:22 10° ENE visible
24 Sep - 03:36:45 10° WNW 03:46:56 71° N 03:56:56 10° E visible
24 Sep - 05:42:02 10° WNW 05:52:08 73° SSW 06:01:53 10° SE visible
24 Sep - 07:47:58 10° WNW 07:55:44 27° SW 08:03:19 10° S night (unlit)
24 Sep - 21:03:10 10° SSE 21:08:12 15° ESE 21:13:16 10° E daylight
24 Sep - 23:01:39 10° SSW 23:11:15 53° SE 23:21:00 10° ENE daylight
